| time (UTC) | temp C | wind direction | speed KPH | gust KPH | rain 1hr cm | rain 24hr cm | rain mn cm | humidity % | barometer mb |
| 20260503223727 | 19 | 180 | 6.4 | 9.7 | 0.00 | 0.00 | 0.00 | 60 | 1017.9 |
| 20260503223225 | 19 | 92 | 1.6 | 3.2 | 0.00 | 0.00 | 0.00 | 61 | 1018.0 |
| 20260503222721 | 19 | 91 | 1.6 | 3.2 | 0.00 | 0.00 | 0.00 | 60 | 1017.9 |
| 20260503222219 | 19 | 96 | 3.2 | 4.8 | 0.00 | 0.00 | 0.00 | 61 | 1017.6 |
| 20260503221717 | 19 | 124 | 4.8 | 4.8 | 0.00 | 0.00 | 0.00 | 61 | 1017.8 |
| 20260503221215 | 19 | 152 | 3.2 | 4.8 | 0.00 | 0.00 | 0.00 | 61 | 1017.8 |
| 20260503220711 | 20 | 89 | 1.6 | 1.6 | 0.00 | 0.00 | 0.00 | 60 | 1017.5 |
| 20260503220208 | 20 | 206 | 8.0 | 9.7 | 0.00 | 0.00 | 0.00 | 61 | 1017.5 |
| 20260503215705 | 20 | 96 | 1.6 | 1.6 | 0.00 | 0.00 | 0.00 | 60 | 1017.8 |
| 20260503215201 | 20 | 109 | 3.2 | 4.8 | 0.00 | 0.00 | 0.00 | 59 | 1017.5 |
| 20260503214700 | 20 | 90 | 1.6 | 3.2 | 0.00 | 0.00 | 0.00 | 58 | 1017.7 |
| 20260503214156 | 20 | 106 | 0.0 | 1.6 | 0.00 | 0.00 | 0.00 | 58 | 1017.5 |
| 20260503213655 | 20 | 156 | 4.8 | 4.8 | 0.00 | 0.00 | 0.00 | 57 | 1017.8 |
| 20260503213151 | 20 | 111 | 1.6 | 3.2 | 0.00 | 0.00 | 0.00 | 57 | 1017.5 |
| 20260503212649 | 20 | 167 | 1.6 | 3.2 | 0.00 | 0.00 | 0.00 | 57 | 1017.6 |
| 20260503212146 | 20 | 80 | 1.6 | 1.6 | 0.00 | 0.00 | 0.00 | 57 | 1017.4 |
| 20260503211644 | 21 | 251 | 6.4 | 9.7 | 0.00 | 0.00 | 0.00 | 55 | 1017.5 |
| 20260503211139 | 21 | 232 | 3.2 | 4.8 | 0.00 | 0.00 | 0.00 | 53 | 1017.6 |
| 20260503210635 | 22 | 102 | 1.6 | 3.2 | 0.00 | 0.00 | 0.00 | 51 | 1017.5 |
| 20260503210132 | 22 | 88 | 1.6 | 1.6 | 0.00 | 0.00 | 0.00 | 46 | 1017.6 |
| 20260503205628 | 22 | 61 | 1.6 | 1.6 | 0.00 | 0.00 | 0.00 | 46 | 1017.6 |
| 20260503205125 | 22 | 56 | 1.6 | 3.2 | 0.00 | 0.00 | 0.00 | 45 | 1017.7 |
| 20260503204621 | 22 | 38 | 1.6 | 3.2 | 0.00 | 0.00 | 0.00 | 44 | 1017.8 |
| 20260503204119 | 21 | 81 | 0.0 | 0.0 | 0.00 | 0.00 | 0.00 | 45 | 1017.9 |
| 20260503203616 | 21 | 83 | 0.0 | 0.0 | 0.00 | 0.00 | 0.00 | 46 | 1017.7 |
| 20260503203113 | 22 | 92 | 0.0 | 1.6 | 0.00 | 0.00 | 0.00 | 44 | 1017.6 |
| 20260503202611 | 21 | 166 | 4.8 | 4.8 | 0.00 | 0.00 | 0.00 | 45 | 1017.8 |
| 20260503202108 | 21 | 160 | 4.8 | 4.8 | 0.00 | 0.00 | 0.00 | 46 | 1017.9 |
| 20260503201606 | 22 | 243 | 8.0 | 9.7 | 0.00 | 0.00 | 0.00 | 44 | 1018.1 |
| 20260503201103 | 22 | 94 | 1.6 | 1.6 | 0.00 | 0.00 | 0.00 | 43 | 1018.1 |
| 20260503200559 | 22 | 93 | 1.6 | 1.6 | 0.00 | 0.00 | 0.00 | 43 | 1018.3 |
| 20260503200056 | 22 | 145 | 1.6 | 3.2 | 0.00 | 0.00 | 0.00 | 43 | 1018.3 |
| 20260503195553 | 22 | 71 | 1.6 | 3.2 | 0.00 | 0.00 | 0.00 | 44 | 1018.2 |
| 20260503195050 | 22 | 120 | 4.8 | 4.8 | 0.00 | 0.00 | 0.00 | 43 | 1018.3 |
| 20260503194547 | 22 | 103 | 1.6 | 1.6 | 0.00 | 0.00 | 0.00 | 42 | 1018.5 |
| 20260503194047 | 21 | 40 | 0.0 | 1.6 | 0.00 | 0.00 | 0.00 | 46 | 1018.4 |
| 20260503193544 | 22 | 58 | 6.4 | 8.0 | 0.00 | 0.00 | 0.00 | 44 | 1018.4 |
| 20260503193039 | 23 | 53 | 1.6 | 1.6 | 0.00 | 0.00 | 0.00 | 43 | 1018.7 |
| 20260503192536 | 22 | 88 | 1.6 | 1.6 | 0.00 | 0.00 | 0.00 | 43 | 1018.9 |
| 20260503192031 | 22 | 66 | 1.6 | 1.6 | 0.00 | 0.00 | 0.00 | 45 | 1018.8 |
| 20260503191528 | 20 | 94 | 0.0 | 1.6 | 0.00 | 0.00 | 0.00 | 48 | 1019.0 |
| 20260503191025 | 20 | 39 | 1.6 | 3.2 | 0.00 | 0.00 | 0.00 | 52 | 1019.3 |
| 20260503190522 | 21 | 71 | 1.6 | 1.6 | 0.00 | 0.00 | 0.00 | 48 | 1019.3 |
| 20260503190019 | 21 | 79 | 0.0 | 0.0 | 0.00 | 0.00 | 0.00 | 47 | 1019.2 |
| 20260503185515 | 21 | 137 | 1.6 | 3.2 | 0.00 | 0.00 | 0.00 | 46 | 1019.5 |
| 20260503185015 | 21 | 32 | 4.8 | 4.8 | 0.00 | 0.00 | 0.00 | 45 | 1019.4 |
| 20260503184512 | 21 | 346 | 3.2 | 8.0 | 0.00 | 0.00 | 0.00 | 45 | 1019.6 |
| 20260503184008 | 21 | 62 | 4.8 | 4.8 | 0.00 | 0.00 | 0.00 | 48 | 1019.7 |
| 20260503183505 | 21 | 64 | 1.6 | 1.6 | 0.00 | 0.00 | 0.00 | 49 | 1019.9 |
| 20260503183002 | 20 | 86 | 0.0 | 0.0 | 0.00 | 0.00 | 0.00 | 51 | 1019.7 |
| 20260503182501 | 21 | 79 | 0.0 | 0.0 | 0.00 | 0.00 | 0.00 | 49 | 1020.0 |
| 20260503181958 | 21 | 60 | 1.6 | 1.6 | 0.00 | 0.00 | 0.00 | 48 | 1020.0 |
| 20260503181455 | 22 | 70 | 1.6 | 1.6 | 0.00 | 0.00 | 0.00 | 47 | 1019.9 |
| 20260503180950 | 21 | 160 | 6.4 | 8.0 | 0.00 | 0.00 | 0.00 | 45 | 1019.9 |
| 20260503180449 | 22 | 117 | 1.6 | 1.6 | 0.00 | 0.00 | 0.00 | 45 | 1019.8 |
| 20260503175945 | 21 | 55 | 3.2 | 3.2 | 0.00 | 0.00 | 0.00 | 50 | 1020.1 |
| 20260503175444 | 21 | 70 | 0.0 | 0.0 | 0.00 | 0.00 | 0.00 | 47 | 1019.9 |
| 20260503174939 | 21 | 83 | 0.0 | 1.6 | 0.00 | 0.00 | 0.00 | 48 | 1019.9 |
| 20260503174437 | 20 | 71 | 1.6 | 1.6 | 0.00 | 0.00 | 0.00 | 48 | 1019.9 |
| 20260503173932 | 21 | 76 | 1.6 | 1.6 | 0.00 | 0.00 | 0.00 | 49 | 1020.0 |
| 20260503173428 | 20 | 86 | 0.0 | 0.0 | 0.00 | 0.00 | 0.00 | 50 | 1020.0 |
| 20260503172925 | 20 | 74 | 1.6 | 3.2 | 0.00 | 0.00 | 0.00 | 48 | 1020.1 |
| 20260503172423 | 20 | 69 | 1.6 | 1.6 | 0.00 | 0.00 | 0.00 | 50 | 1020.0 |
| 20260503171919 | 20 | 72 | 1.6 | 1.6 | 0.00 | 0.00 | 0.00 | 50 | 1020.2 |
| 20260503171416 | 20 | 70 | 1.6 | 1.6 | 0.00 | 0.00 | 0.00 | 49 | 1020.2 |
| 20260503170913 | 20 | 80 | 0.0 | 1.6 | 0.00 | 0.00 | 0.00 | 48 | 1020.5 |
| 20260503170409 | 20 | 262 | 4.8 | 4.8 | 0.00 | 0.00 | 0.00 | 47 | 1020.3 |
| 20260503150802 | 18 | 83 | 1.6 | 3.2 | 0.00 | 0.00 | 0.00 | 58 | 1020.9 |
| 20260503150257 | 18 | 101 | 1.6 | 1.6 | 0.00 | 0.00 | 0.00 | 59 | 1020.8 |
| 20260503140222 | 17 | 86 | 3.2 | 3.2 | 0.00 | 0.00 | 0.00 | 69 | 1020.5 |
| 20260503131152 | 15 | 78 | 1.6 | 1.6 | 0.00 | 0.00 | 0.00 | 86 | 1020.4 |
| 20260503130649 | 14 | 84 | 1.6 | 1.6 | 0.00 | 0.00 | 0.00 | 91 | 1020.5 |
| 20260503130147 | 13 | 88 | 0.0 | 1.6 | 0.00 | 0.00 | 0.00 | 97 | 1020.5 |
| 20260503120112 | 10 | 71 | 0.0 | 0.0 | 0.00 | 0.00 | 0.00 | 99 | 1020.1 |
| 20260503110539 | 7 | 71 | 0.0 | 0.0 | 0.00 | 0.00 | 0.00 | 99 | 1019.3 |
| 20260503090426 | 8 | 71 | 0.0 | 0.0 | 0.00 | 0.00 | 0.00 | 99 | 1017.9 |
| 20260503081352 | 8 | 72 | 0.0 | 0.0 | 0.00 | 0.00 | 0.00 | 99 | 1017.7 |
| 20260503080849 | 8 | 72 | 0.0 | 0.0 | 0.00 | 0.00 | 0.00 | 99 | 1017.8 |
| 20260503080346 | 8 | 72 | 0.0 | 0.0 | 0.00 | 0.00 | 0.00 | 99 | 1017.5 |
| 20260503072823 | 9 | 72 | 0.0 | 0.0 | 0.00 | 0.00 | 0.00 | 99 | 1017.3 |
| 20260503072320 | 9 | 72 | 0.0 | 0.0 | 0.00 | 0.00 | 0.00 | 99 | 1017.3 |
| 20260503071816 | 9 | 72 | 0.0 | 0.0 | 0.00 | 0.00 | 0.00 | 99 | 1017.1 |
| 20260503071314 | 9 | 72 | 0.0 | 0.0 | 0.00 | 0.00 | 0.00 | 99 | 1017.2 |
| 20260503070809 | 9 | 71 | 0.0 | 0.0 | 0.00 | 0.00 | 0.00 | 99 | 1017.4 |
| 20260503070308 | 9 | 71 | 0.0 | 1.6 | 0.00 | 0.00 | 0.00 | 99 | 1017.2 |
| 20260503060227 | 10 | 71 | 0.0 | 0.0 | 0.00 | 0.00 | 0.00 | 99 | 1017.1 |
| 20260503054714 | 10 | 71 | 0.0 | 0.0 | 0.00 | 0.00 | 0.00 | 99 | 1017.2 |
| 20260503054211 | 10 | 71 | 0.0 | 0.0 | 0.00 | 0.00 | 0.00 | 99 | 1017.1 |
| 20260503053709 | 10 | 71 | 0.0 | 0.0 | 0.00 | 0.00 | 0.00 | 99 | 1017.1 |
| 20260503053207 | 10 | 71 | 0.0 | 0.0 | 0.00 | 0.00 | 0.00 | 99 | 1017.0 |
| 20260503052703 | 10 | 71 | 0.0 | 0.0 | 0.00 | 0.00 | 0.00 | 99 | 1016.9 |
| 20260503052200 | 10 | 71 | 0.0 | 0.0 | 0.00 | 0.00 | 0.00 | 99 | 1017.1 |
| 20260503051655 | 10 | 71 | 0.0 | 0.0 | 0.00 | 0.00 | 0.00 | 99 | 1017.0 |
| 20260503051153 | 10 | 71 | 0.0 | 0.0 | 0.00 | 0.00 | 0.00 | 99 | 1016.9 |
| 20260503050649 | 10 | 71 | 0.0 | 0.0 | 0.00 | 0.00 | 0.00 | 99 | 1016.9 |
| 20260503050146 | 10 | 71 | 0.0 | 0.0 | 0.00 | 0.00 | 0.00 | 99 | 1016.9 |
| 20260503045643 | 10 | 71 | 0.0 | 0.0 | 0.00 | 0.00 | 0.00 | 99 | 1016.7 |
| 20260503045140 | 10 | 71 | 0.0 | 0.0 | 0.00 | 0.00 | 0.00 | 99 | 1016.6 |
| 20260503044637 | 10 | 71 | 0.0 | 0.0 | 0.00 | 0.00 | 0.00 | 99 | 1016.8 |
| 20260503044135 | 10 | 71 | 0.0 | 0.0 | 0.00 | 0.00 | 0.00 | 99 | 1016.4 |
| 20260503043631 | 11 | 71 | 0.0 | 0.0 | 0.00 | 0.00 | 0.00 | 99 | 1016.3 |
| 20260503043128 | 11 | 71 | 0.0 | 0.0 | 0.00 | 0.00 | 0.00 | 99 | 1016.5 |
| 20260503042625 | 11 | 71 | 0.0 | 0.0 | 0.00 | 0.00 | 0.00 | 99 | 1016.5 |
| 20260503042120 | 11 | 71 | 0.0 | 0.0 | 0.00 | 0.00 | 0.00 | 99 | 1016.5 |
| 20260503041617 | 11 | 71 | 0.0 | 0.0 | 0.00 | 0.00 | 0.00 | 99 | 1016.2 |
| 20260503041115 | 11 | 72 | 0.0 | 0.0 | 0.00 | 0.00 | 0.00 | 99 | 1016.0 |
| 20260503040612 | 11 | 71 | 0.0 | 0.0 | 0.00 | 0.00 | 0.00 | 99 | 1016.4 |
| 20260503040110 | 11 | 71 | 0.0 | 0.0 | 0.00 | 0.00 | 0.00 | 99 | 1016.3 |
| 20260503035606 | 11 | 71 | 0.0 | 0.0 | 0.00 | 0.00 | 0.00 | 99 | 1016.2 |
| 20260503035104 | 11 | 71 | 0.0 | 0.0 | 0.00 | 0.00 | 0.00 | 99 | 1016.2 |
| 20260503034601 | 11 | 72 | 0.0 | 0.0 | 0.00 | 0.00 | 0.00 | 99 | 1016.1 |
| 20260503034058 | 11 | 72 | 0.0 | 0.0 | 0.00 | 0.00 | 0.00 | 99 | 1016.0 |
| 20260503033555 | 11 | 71 | 0.0 | 0.0 | 0.00 | 0.00 | 0.00 | 99 | 1016.1 |
| 20260503033053 | 11 | 73 | 0.0 | 0.0 | 0.00 | 0.00 | 0.00 | 99 | 1015.9 |
| 20260503032551 | 11 | 74 | 0.0 | 0.0 | 0.00 | 0.00 | 0.00 | 99 | 1015.7 |
| 20260503032049 | 11 | 74 | 0.0 | 0.0 | 0.00 | 0.00 | 0.00 | 99 | 1015.8 |
| 20260503031546 | 11 | 74 | 0.0 | 0.0 | 0.00 | 0.00 | 0.00 | 99 | 1015.7 |
| 20260503031043 | 11 | 74 | 0.0 | 0.0 | 0.00 | 0.00 | 0.00 | 99 | 1015.7 |
| 20260503030539 | 11 | 74 | 0.0 | 0.0 | 0.00 | 0.00 | 0.00 | 99 | 1015.5 |
| 20260503030037 | 11 | 74 | 0.0 | 0.0 | 0.00 | 0.00 | 0.00 | 99 | 1015.6 |
| 20260503025533 | 11 | 74 | 0.0 | 0.0 | 0.00 | 0.00 | 0.00 | 99 | 1015.4 |
| 20260503025031 | 11 | 74 | 0.0 | 0.0 | 0.00 | 0.00 | 0.00 | 99 | 1015.2 |
| 20260503024527 | 11 | 78 | 0.0 | 0.0 | 0.00 | 0.00 | 0.00 | 99 | 1015.1 |
| 20260503024025 | 12 | 75 | 0.0 | 0.0 | 0.00 | 0.00 | 0.00 | 98 | 1015.0 |
| 20260503023521 | 12 | 75 | 0.0 | 0.0 | 0.00 | 0.00 | 0.00 | 98 | 1014.9 |
| 20260503023019 | 12 | 75 | 0.0 | 0.0 | 0.00 | 0.00 | 0.00 | 98 | 1014.8 |
| 20260503022515 | 12 | 79 | 0.0 | 0.0 | 0.00 | 0.00 | 0.00 | 98 | 1014.9 |
| 20260503022009 | 12 | 79 | 0.0 | 0.0 | 0.00 | 0.00 | 0.00 | 98 | 1014.8 |
| 20260503021506 | 12 | 82 | 0.0 | 0.0 | 0.00 | 0.00 | 0.00 | 98 | 1014.6 |
| 20260503021003 | 12 | 78 | 0.0 | 0.0 | 0.00 | 0.00 | 0.00 | 98 | 1014.9 |
| 20260503020501 | 12 | 74 | 0.0 | 0.0 | 0.00 | 0.00 | 0.00 | 98 | 1014.8 |
| 20260503015957 | 12 | 72 | 0.0 | 0.0 | 0.00 | 0.00 | 0.00 | 98 | 1014.8 |
| 20260503015454 | 12 | 73 | 0.0 | 0.0 | 0.00 | 0.00 | 0.00 | 98 | 1014.6 |
| 20260503014950 | 12 | 73 | 0.0 | 0.0 | 0.00 | 0.00 | 0.00 | 98 | 1014.3 |
| 20260503014447 | 12 | 73 | 0.0 | 0.0 | 0.00 | 0.00 | 0.00 | 98 | 1014.4 |
| 20260503013945 | 12 | 73 | 0.0 | 0.0 | 0.00 | 0.00 | 0.00 | 98 | 1014.3 |
| 20260503013442 | 12 | 73 | 0.0 | 0.0 | 0.00 | 0.00 | 0.00 | 98 | 1014.1 |
| 20260503012939 | 12 | 73 | 0.0 | 0.0 | 0.00 | 0.00 | 0.00 | 98 | 1014.2 |
| 20260503012437 | 12 | 73 | 0.0 | 0.0 | 0.00 | 0.00 | 0.00 | 98 | 1014.1 |
| 20260503011933 | 12 | 73 | 0.0 | 0.0 | 0.00 | 0.00 | 0.00 | 98 | 1014.1 |
| 20260503011430 | 12 | 73 | 0.0 | 0.0 | 0.00 | 0.00 | 0.00 | 98 | 1013.8 |
| 20260503010927 | 12 | 73 | 0.0 | 0.0 | 0.00 | 0.00 | 0.00 | 98 | 1013.9 |
| 20260503010424 | 12 | 74 | 0.0 | 0.0 | 0.00 | 0.00 | 0.00 | 98 | 1013.7 |
| 20260503005921 | 12 | 74 | 0.0 | 0.0 | 0.00 | 0.00 | 0.00 | 98 | 1014.0 |
| 20260503005418 | 12 | 76 | 0.0 | 0.0 | 0.00 | 0.00 | 0.00 | 98 | 1013.9 |
| 20260503004915 | 12 | 76 | 0.0 | 0.0 | 0.00 | 0.00 | 0.00 | 98 | 1014.2 |
| 20260503004412 | 12 | 77 | 0.0 | 0.0 | 0.00 | 0.00 | 0.00 | 98 | 1014.1 |
| 20260503003909 | 12 | 78 | 0.0 | 0.0 | 0.00 | 0.00 | 0.00 | 98 | 1013.9 |
| 20260503003406 | 12 | 69 | 0.0 | 1.6 | 0.00 | 0.00 | 0.00 | 98 | 1013.9 |
| 20260503002903 | 12 | 72 | 1.6 | 1.6 | 0.00 | 0.00 | 0.00 | 98 | 1013.7 |
| 20260503002400 | 12 | 69 | 0.0 | 1.6 | 0.00 | 0.00 | 0.00 | 98 | 1013.5 |
| 20260503001856 | 12 | 76 | 0.0 | 0.0 | 0.00 | 0.00 | 0.00 | 98 | 1013.5 |
| 20260503001353 | 12 | 76 | 0.0 | 0.0 | 0.00 | 0.00 | 0.00 | 98 | 1013.5 |
| 20260503000851 | 12 | 67 | 1.6 | 1.6 | 0.00 | 0.00 | 0.00 | 98 | 1013.3 |
| 20260503000348 | 13 | 78 | 0.0 | 0.0 | 0.00 | 0.00 | 0.00 | 98 | 1013.2 |
| 20260502235844 | 12 | 75 | 0.0 | 0.0 | 0.00 | 0.00 | 0.00 | 98 | 1013.4 |
| 20260502235342 | 12 | 64 | 1.6 | 3.2 | 0.00 | 0.00 | 0.00 | 98 | 1013.0 |
| 20260502234838 | 12 | 69 | 0.0 | 1.6 | 0.00 | 0.00 | 0.00 | 98 | 1013.1 |
| 20260502234335 | 13 | 83 | 0.0 | 0.0 | 0.00 | 0.00 | 0.00 | 98 | 1013.0 |
| 20260502233832 | 13 | 75 | 0.0 | 1.6 | 0.00 | 0.00 | 0.00 | 98 | 1013.1 |
| 20260502233328 | 13 | 72 | 0.0 | 1.6 | 0.00 | 0.00 | 0.00 | 98 | 1012.9 |
| 20260502232825 | 13 | 84 | 0.0 | 0.0 | 0.00 | 0.00 | 0.00 | 98 | 1012.6 |
| 20260502232321 | 13 | 70 | 1.6 | 1.6 | 0.00 | 0.00 | 0.00 | 98 | 1012.9 |
| 20260502231818 | 13 | 75 | 0.0 | 0.0 | 0.00 | 0.00 | 0.00 | 98 | 1012.8 |
| 20260502231316 | 13 | 44 | 3.2 | 3.2 | 0.00 | 0.00 | 0.00 | 98 | 1012.7 |
| 20260502230814 | 13 | 85 | 0.0 | 0.0 | 0.00 | 0.00 | 0.00 | 98 | 1012.5 |
| 20260502230312 | 13 | 69 | 1.6 | 1.6 | 0.00 | 0.00 | 0.00 | 98 | 1012.5 |
| 20260502225808 | 13 | 69 | 1.6 | 3.2 | 0.00 | 0.00 | 0.00 | 98 | 1012.4 |
| 20260502225305 | 13 | 68 | 1.6 | 1.6 | 0.00 | 0.00 | 0.00 | 98 | 1012.4 |
| 20260502224802 | 13 | 74 | 0.0 | 0.0 | 0.00 | 0.00 | 0.00 | 98 | 1012.8 |
| 20260502224258 | 13 | 71 | 0.0 | 0.0 | 0.00 | 0.00 | 0.00 | 98 | 1012.6 |